Time,TemperatureF,DewpointF,PressureIn,WindDirection,WindDirectionDegrees,WindSpeedMPH,WindSpeedGustMPH,Humidity,HourlyPrecipIn,Conditions,Clouds,dailyrainin,SoftwareType,DateUTC
2013-04-10 00:00:00,69.0,60.0,30.09,SW,229,1.0,5.0,73,0.00,,---,0.00,VWS V14.00,2013-04-10 04:00:00,
2013-04-10 00:05:00,68.8,60.2,30.09,SSW,213,1.0,8.0,74,0.00,,---,0.00,VWS V14.00,2013-04-10 04:05:00,
2013-04-10 00:10:00,68.6,60.4,30.09,SSW,206,5.0,8.0,75,0.00,,---,0.00,VWS V14.00,2013-04-10 04:10:00,
2013-04-10 00:15:00,68.5,60.3,30.09,SSW,211,0.0,8.0,75,0.00,,---,0.00,VWS V14.00,2013-04-10 04:15:00,
2013-04-10 00:20:00,68.3,60.5,30.09,SSW,198,0.0,8.0,76,0.00,,---,0.00,VWS V14.00,2013-04-10 04:20:00,
2013-04-10 00:25:00,68.1,60.6,30.09,SSW,200,0.0,8.0,77,0.00,,---,0.00,VWS V14.00,2013-04-10 04:25:00,
2013-04-10 00:30:00,68.0,60.5,30.09,SSW,205,1.0,7.0,77,0.00,,---,0.00,VWS V14.00,2013-04-10 04:30:00,
2013-04-10 00:35:00,67.8,60.7,30.09,SW,215,1.0,7.0,78,0.00,,---,0.00,VWS V14.00,2013-04-10 04:35:00,
2013-04-10 00:40:00,67.6,60.5,30.09,SSW,200,0.0,7.0,78,0.00,,---,0.00,VWS V14.00,2013-04-10 04:40:00,
2013-04-10 00:45:00,67.5,60.4,30.09,SW,219,1.0,7.0,78,0.00,,---,0.00,VWS V14.00,2013-04-10 04:45:00,
2013-04-10 00:50:00,67.3,60.6,30.08,SSW,202,0.0,7.0,79,0.00,,---,0.00,VWS V14.00,2013-04-10 04:50:00,
2013-04-10 00:55:00,67.2,60.5,30.08,SSW,213,0.0,7.0,79,0.00,,---,0.00,VWS V14.00,2013-04-10 04:55:00,
2013-04-10 01:00:00,67.0,60.6,30.08,SSW,207,2.0,4.0,80,0.00,,---,0.00,VWS V14.00,2013-04-10 05:00:00,
2013-04-10 01:05:00,66.8,60.4,30.08,SSW,210,3.0,4.0,80,0.00,,---,0.00,VWS V14.00,2013-04-10 05:05:00,
2013-04-10 01:10:00,66.7,60.3,30.08,SW,221,1.0,4.0,80,0.00,,---,0.00,VWS V14.00,2013-04-10 05:10:00,
2013-04-10 01:15:00,66.6,60.2,30.08,WSW,241,1.0,7.0,80,0.00,,---,0.00,VWS V14.00,2013-04-10 05:15:00,
2013-04-10 01:20:00,66.5,60.5,30.08,SSW,210,1.0,7.0,81,0.00,,---,0.00,VWS V14.00,2013-04-10 05:20:00,
2013-04-10 01:25:00,66.4,60.4,30.08,SSW,204,0.0,7.0,81,0.00,,---,0.00,VWS V14.00,2013-04-10 05:25:00,
2013-04-10 01:30:00,66.2,60.2,30.08,SSW,205,3.0,5.0,81,0.00,,---,0.00,VWS V14.00,2013-04-10 05:30:00,
2013-04-10 01:35:00,66.1,60.1,30.09,SSW,204,1.0,5.0,81,0.00,,---,0.00,VWS V14.00,2013-04-10 05:35:00,
2013-04-10 01:40:00,66.1,60.1,30.09,SSW,204,0.0,5.0,81,0.00,,---,0.00,VWS V14.00,2013-04-10 05:40:00,
2013-04-10 01:45:00,65.9,59.9,30.09,SSW,204,0.0,5.0,81,0.00,,---,0.00,VWS V14.00,2013-04-10 05:45:00,
2013-04-10 01:50:00,65.8,59.8,30.09,SSW,204,0.0,5.0,81,0.00,,---,0.00,VWS V14.00,2013-04-10 05:50:00,
2013-04-10 01:55:00,65.8,59.8,30.09,SSW,204,0.0,5.0,81,0.00,,---,0.00,VWS V14.00,2013-04-10 05:55:00,
2013-04-10 02:00:00,65.7,59.7,30.09,SSW,204,3.0,3.0,81,0.00,,---,0.00,VWS V14.00,2013-04-10 06:00:00,
2013-04-10 02:05:00,65.5,59.5,30.09,SSW,204,0.0,3.0,81,0.00,,---,0.00,VWS V14.00,2013-04-10 06:05:00,
2013-04-10 02:10:00,65.4,59.4,30.09,SSW,204,0.0,3.0,81,0.00,,---,0.00,VWS V14.00,2013-04-10 06:10:00,
2013-04-10 02:15:00,65.2,59.6,30.09,SSW,204,0.0,3.0,82,0.00,,---,0.00,VWS V14.00,2013-04-10 06:15:00,
2013-04-10 02:20:00,65.1,59.5,30.09,SSW,204,0.0,3.0,82,0.00,,---,0.00,VWS V14.00,2013-04-10 06:20:00,
2013-04-10 02:25:00,65.0,59.4,30.09,SSW,203,2.0,4.0,82,0.00,,---,0.00,VWS V14.00,2013-04-10 06:25:00,
2013-04-10 02:30:00,65.0,59.7,30.08,SSW,212,0.0,3.0,83,0.00,,---,0.00,VWS V14.00,2013-04-10 06:30:00,
2013-04-10 02:35:00,65.0,59.7,30.08,SW,214,0.0,4.0,83,0.00,,---,0.00,VWS V14.00,2013-04-10 06:35:00,
2013-04-10 02:40:00,65.0,59.7,30.08,SSW,213,0.0,4.0,83,0.00,,---,0.00,VWS V14.00,2013-04-10 06:40:00,
2013-04-10 02:45:00,65.0,59.7,30.08,SSW,213,1.0,4.0,83,0.00,,---,0.00,VWS V14.00,2013-04-10 06:45:00,
2013-04-10 02:50:00,65.0,59.7,30.08,SSW,207,0.0,4.0,83,0.00,,---,0.00,VWS V14.00,2013-04-10 06:50:00,
2013-04-10 02:55:00,64.9,59.6,30.08,SSW,207,1.0,4.0,83,0.00,,---,0.00,VWS V14.00,2013-04-10 06:55:00,
2013-04-10 03:00:00,64.8,59.5,30.08,SSW,207,0.0,0.0,83,0.00,,---,0.00,VWS V14.00,2013-04-10 07:00:00,
2013-04-10 03:05:00,64.7,59.4,30.08,SSW,207,0.0,1.0,83,0.00,,---,0.00,VWS V14.00,2013-04-10 07:05:00,
2013-04-10 03:10:00,64.5,59.6,30.08,SSW,207,0.0,2.0,84,0.00,,---,0.00,VWS V14.00,2013-04-10 07:10:00,
2013-04-10 03:15:00,64.3,59.4,30.08,SSW,207,0.0,2.0,84,0.00,,---,0.00,VWS V14.00,2013-04-10 07:15:00,
2013-04-10 03:20:00,64.1,59.2,30.08,SSW,207,0.0,2.0,84,0.00,,---,0.00,VWS V14.00,2013-04-10 07:20:00,
2013-04-10 03:25:00,64.0,59.1,30.08,SSW,207,0.0,2.0,84,0.00,,---,0.00,VWS V14.00,2013-04-10 07:25:00,
2013-04-10 03:30:00,63.8,58.9,30.08,SSW,207,0.0,0.0,84,0.00,,---,0.00,VWS V14.00,2013-04-10 07:30:00,
2013-04-10 03:35:00,63.6,59.0,30.07,SSW,207,0.0,0.0,85,0.00,,---,0.00,VWS V14.00,2013-04-10 07:35:00,
2013-04-10 03:40:00,63.4,58.8,30.07,SSW,207,0.0,1.0,85,0.00,,---,0.00,VWS V14.00,2013-04-10 07:40:00,
2013-04-10 03:45:00,63.1,58.5,30.08,SSW,207,1.0,1.0,85,0.00,,---,0.00,VWS V14.00,2013-04-10 07:45:00,
2013-04-10 03:50:00,63.0,58.8,30.07,SSW,207,0.0,1.0,86,0.00,,---,0.00,VWS V14.00,2013-04-10 07:50:00,
2013-04-10 03:55:00,62.9,58.7,30.07,SSW,207,0.0,1.0,86,0.00,,---,0.00,VWS V14.00,2013-04-10 07:55:00,
2013-04-10 04:00:00,62.8,58.6,30.07,SSW,207,0.0,0.0,86,0.00,,---,0.00,VWS V14.00,2013-04-10 08:00:00,
2013-04-10 04:05:00,62.6,58.7,30.07,SSW,207,0.0,1.0,87,0.00,,---,0.00,VWS V14.00,2013-04-10 08:05:00,
2013-04-10 04:10:00,62.5,58.3,30.08,SSW,207,0.0,1.0,86,0.00,,---,0.00,VWS V14.00,2013-04-10 08:10:00,
2013-04-10 04:15:00,62.3,58.4,30.07,SSW,207,0.0,1.0,87,0.00,,---,0.00,VWS V14.00,2013-04-10 08:15:00,
2013-04-10 04:20:00,62.1,58.2,30.08,SSW,207,0.0,1.0,87,0.00,,---,0.00,VWS V14.00,2013-04-10 08:20:00,
2013-04-10 04:25:00,61.8,57.9,30.07,SSW,207,0.0,1.0,87,0.00,,---,0.00,VWS V14.00,2013-04-10 08:25:00,
2013-04-10 04:30:00,61.6,58.0,30.07,SSW,207,0.0,0.0,88,0.00,,---,0.00,VWS V14.00,2013-04-10 08:30:00,
2013-04-10 04:35:00,61.4,57.8,30.07,SSW,207,0.0,0.0,88,0.00,,---,0.00,VWS V14.00,2013-04-10 08:35:00,
2013-04-10 04:40:00,61.3,58.0,30.07,SSW,207,0.0,2.0,89,0.00,,---,0.00,VWS V14.00,2013-04-10 08:40:00,
2013-04-10 04:45:00,61.4,58.5,30.07,SSW,207,0.0,2.0,90,0.00,,---,0.00,VWS V14.00,2013-04-10 08:45:00,
2013-04-10 04:50:00,61.6,58.3,30.07,SSW,207,0.0,2.0,89,0.00,,---,0.00,VWS V14.00,2013-04-10 08:50:00,
2013-04-10 04:55:00,61.6,58.3,30.07,SSW,207,0.0,2.0,89,0.00,,---,0.00,VWS V14.00,2013-04-10 08:55:00,
2013-04-10 05:00:00,61.7,58.4,30.07,SSW,207,0.0,1.0,89,0.00,,---,0.00,VWS V14.00,2013-04-10 09:00:00,
2013-04-10 05:05:00,61.6,58.3,30.07,SSW,207,0.0,1.0,89,0.00,,---,0.00,VWS V14.00,2013-04-10 09:05:00,
2013-04-10 05:10:00,61.6,58.3,30.07,SSW,207,0.0,1.0,89,0.00,,---,0.00,VWS V14.00,2013-04-10 09:10:00,
2013-04-10 05:15:00,61.5,58.2,30.07,SSW,207,0.0,2.0,89,0.00,,---,0.00,VWS V14.00,2013-04-10 09:15:00,
2013-04-10 05:20:00,61.5,58.2,30.07,SSW,207,1.0,2.0,89,0.00,,---,0.00,VWS V14.00,2013-04-10 09:20:00,
2013-04-10 05:25:00,61.4,58.1,30.07,SSW,207,0.0,2.0,89,0.00,,---,0.00,VWS V14.00,2013-04-10 09:25:00,
2013-04-10 05:30:00,61.4,58.1,30.07,SSW,207,0.0,2.0,89,0.00,,---,0.00,VWS V14.00,2013-04-10 09:30:00,
2013-04-10 05:35:00,61.3,58.0,30.07,SSW,207,0.0,3.0,89,0.00,,---,0.00,VWS V14.00,2013-04-10 09:35:00,
2013-04-10 05:40:00,61.4,58.1,30.07,SSW,210,0.0,3.0,89,0.00,,---,0.00,VWS V14.00,2013-04-10 09:40:00,
2013-04-10 05:45:00,61.4,58.1,30.07,SW,217,0.0,3.0,89,0.00,,---,0.00,VWS V14.00,2013-04-10 09:45:00,
2013-04-10 05:50:00,61.4,57.8,30.07,SW,217,0.0,3.0,88,0.00,,---,0.00,VWS V14.00,2013-04-10 09:50:00,
2013-04-10 05:55:00,61.4,57.8,30.07,SW,218,1.0,4.0,88,0.00,,---,0.00,VWS V14.00,2013-04-10 09:55:00,
2013-04-10 06:00:00,61.6,58.0,30.07,SW,218,1.0,1.0,88,0.00,,---,0.00,VWS V14.00,2013-04-10 10:00:00,
2013-04-10 06:05:00,61.6,58.0,30.07,SW,217,0.0,3.0,88,0.00,,---,0.00,VWS V14.00,2013-04-10 10:05:00,
2013-04-10 06:10:00,61.7,58.1,30.07,SW,225,0.0,4.0,88,0.00,,---,0.00,VWS V14.00,2013-04-10 10:10:00,
2013-04-10 06:15:00,61.7,57.8,30.07,SW,225,0.0,4.0,87,0.00,,---,0.00,VWS V14.00,2013-04-10 10:15:00,
2013-04-10 06:20:00,61.7,57.8,30.07,SW,225,0.0,4.0,87,0.00,,---,0.00,VWS V14.00,2013-04-10 10:20:00,
2013-04-10 06:25:00,61.7,57.8,30.07,SW,226,2.0,4.0,87,0.00,,---,0.00,VWS V14.00,2013-04-10 10:25:00,
2013-04-10 06:30:00,61.8,57.9,30.07,SW,226,1.0,4.0,87,0.00,,---,0.00,VWS V14.00,2013-04-10 10:30:00,
2013-04-10 06:35:00,61.8,57.9,30.08,SW,227,0.0,4.0,87,0.00,,---,0.00,VWS V14.00,2013-04-10 10:35:00,
2013-04-10 06:40:00,61.8,57.6,30.08,SW,227,0.0,4.0,86,0.00,,---,0.00,VWS V14.00,2013-04-10 10:40:00,
2013-04-10 06:45:00,61.8,57.6,30.08,SW,227,0.0,4.0,86,0.00,,---,0.00,VWS V14.00,2013-04-10 10:45:00,
2013-04-10 06:50:00,61.8,57.6,30.08,SW,227,0.0,4.0,86,0.00,,---,0.00,VWS V14.00,2013-04-10 10:50:00,
2013-04-10 06:55:00,61.8,57.6,30.08,SW,229,2.0,4.0,86,0.00,,---,0.00,VWS V14.00,2013-04-10 10:55:00,
2013-04-10 07:00:00,61.8,57.6,30.08,SW,229,0.0,4.0,86,0.00,,---,0.00,VWS V14.00,2013-04-10 11:00:00,
2013-04-10 07:05:00,61.9,57.7,30.08,SW,229,0.0,4.0,86,0.00,,---,0.00,VWS V14.00,2013-04-10 11:05:00,
2013-04-10 07:10:00,62.0,57.8,30.08,SW,229,0.0,4.0,86,0.00,,---,0.00,VWS V14.00,2013-04-10 11:10:00,
2013-04-10 07:15:00,62.0,57.8,30.08,SW,225,1.0,4.0,86,0.00,,---,0.00,VWS V14.00,2013-04-10 11:15:00,
2013-04-10 07:20:00,62.0,57.8,30.08,SW,225,0.0,4.0,86,0.00,,---,0.00,VWS V14.00,2013-04-10 11:20:00,
2013-04-10 07:25:00,61.9,57.7,30.08,SW,228,3.0,4.0,86,0.00,,---,0.00,VWS V14.00,2013-04-10 11:25:00,
2013-04-10 07:30:00,61.9,57.7,30.09,SW,228,0.0,1.0,86,0.00,,---,0.00,VWS V14.00,2013-04-10 11:30:00,
2013-04-10 07:35:00,61.8,57.6,30.09,SW,229,0.0,2.0,86,0.00,,---,0.00,VWS V14.00,2013-04-10 11:35:00,
2013-04-10 07:40:00,61.8,57.6,30.09,SW,228,0.0,3.0,86,0.00,,---,0.00,VWS V14.00,2013-04-10 11:40:00,
2013-04-10 07:45:00,61.7,57.8,30.09,SSW,207,0.0,5.0,87,0.00,,---,0.00,VWS V14.00,2013-04-10 11:45:00,
2013-04-10 07:50:00,61.9,58.0,30.09,SSW,207,0.0,5.0,87,0.00,,---,0.00,VWS V14.00,2013-04-10 11:50:00,
2013-04-10 07:55:00,62.0,58.1,30.09,SSW,207,1.0,5.0,87,0.00,,---,0.00,VWS V14.00,2013-04-10 11:55:00,
2013-04-10 08:00:00,62.2,58.3,30.09,SSW,207,0.0,2.0,87,0.00,,---,0.00,VWS V14.00,2013-04-10 12:00:00,
2013-04-10 08:05:00,62.4,58.5,30.09,SSW,207,0.0,2.0,87,0.00,,---,0.00,VWS V14.00,2013-04-10 12:05:00,
2013-04-10 08:10:00,62.8,58.6,30.09,SSW,207,0.0,2.0,86,0.00,,---,0.00,VWS V14.00,2013-04-10 12:10:00,
2013-04-10 08:15:00,63.2,59.0,30.09,SSW,209,0.0,3.0,86,0.00,,---,0.00,VWS V14.00,2013-04-10 12:15:00,
2013-04-10 08:20:00,63.6,59.0,30.09,SSW,205,0.0,5.0,85,0.00,,---,0.00,VWS V14.00,2013-04-10 12:20:00,
2013-04-10 08:25:00,64.0,59.1,30.09,SSW,200,1.0,5.0,84,0.00,,---,0.00,VWS V14.00,2013-04-10 12:25:00,
2013-04-10 08:30:00,64.4,59.5,30.10,SSW,209,1.0,4.0,84,0.00,,---,0.00,VWS V14.00,2013-04-10 12:30:00,
2013-04-10 08:35:00,64.8,59.2,30.10,WSW,240,0.0,6.0,82,0.00,,---,0.00,VWS V14.00,2013-04-10 12:35:00,
2013-04-10 08:40:00,65.3,59.7,30.10,WSW,239,1.0,6.0,82,0.00,,---,0.00,VWS V14.00,2013-04-10 12:40:00,
2013-04-10 08:45:00,65.8,59.8,30.10,SW,227,3.0,6.0,81,0.00,,---,0.00,VWS V14.00,2013-04-10 12:45:00,
2013-04-10 08:50:00,66.2,59.9,30.10,WSW,240,1.0,1.0,80,0.00,,---,0.00,VWS V14.00,2013-04-10 12:50:00,
2013-04-10 08:55:00,66.7,60.0,30.10,WSW,255,2.0,8.0,79,0.00,,---,0.00,VWS V14.00,2013-04-10 12:55:00,
2013-04-10 09:00:00,67.2,60.1,30.10,SW,228,3.0,5.0,78,0.00,,---,0.00,VWS V14.00,2013-04-10 13:00:00,
2013-04-10 09:05:00,67.7,60.2,30.10,WSW,241,5.0,8.0,77,0.00,,---,0.00,VWS V14.00,2013-04-10 13:05:00,
2013-04-10 09:10:00,68.1,60.3,30.10,SW,234,4.0,8.0,76,0.00,,---,0.00,VWS V14.00,2013-04-10 13:10:00,
2013-04-10 09:15:00,68.4,60.5,30.11,West,260,0.0,8.0,76,0.00,,---,0.00,VWS V14.00,2013-04-10 13:15:00,
2013-04-10 09:20:00,68.7,60.5,30.11,SW,234,3.0,8.0,75,0.00,,---,0.00,VWS V14.00,2013-04-10 13:20:00,
2013-04-10 09:25:00,69.1,60.5,30.11,WSW,245,4.0,10.0,74,0.00,,---,0.00,VWS V14.00,2013-04-10 13:25:00,
2013-04-10 09:30:00,69.5,60.5,30.11,SW,227,3.0,7.0,73,0.00,,---,0.00,VWS V14.00,2013-04-10 13:30:00,
2013-04-10 09:35:00,69.9,60.5,30.11,WSW,256,7.0,10.0,72,0.00,,---,0.00,VWS V14.00,2013-04-10 13:35:00,
2013-04-10 09:40:00,70.2,60.8,30.11,SSW,192,6.0,10.0,72,0.00,,---,0.00,VWS V14.00,2013-04-10 13:40:00,
2013-04-10 09:45:00,70.3,60.5,30.11,South,186,6.0,10.0,71,0.00,,---,0.00,VWS V14.00,2013-04-10 13:45:00,
2013-04-10 09:50:00,70.5,60.3,30.11,South,175,4.0,10.0,70,0.00,,---,0.00,VWS V14.00,2013-04-10 13:50:00,
2013-04-10 09:55:00,70.8,60.5,30.11,SW,216,5.0,10.0,70,0.00,,---,0.00,VWS V14.00,2013-04-10 13:55:00,
2013-04-10 10:00:00,71.1,60.4,30.11,SW,221,0.0,5.0,69,0.00,,---,0.00,VWS V14.00,2013-04-10 14:00:00,
2013-04-10 10:05:00,71.3,60.2,30.11,SSW,207,5.0,8.0,68,0.00,,---,0.00,VWS V14.00,2013-04-10 14:05:00,
2013-04-10 10:10:00,71.5,60.4,30.12,SW,223,1.0,8.0,68,0.00,,---,0.00,VWS V14.00,2013-04-10 14:10:00,
2013-04-10 10:15:00,71.8,59.8,30.11,SSW,209,3.0,8.0,66,0.00,,---,0.00,VWS V14.00,2013-04-10 14:15:00,
2013-04-10 10:20:00,72.1,60.1,30.11,SSW,210,4.0,8.0,66,0.00,,---,0.00,VWS V14.00,2013-04-10 14:20:00,
2013-04-10 10:25:00,72.5,60.1,30.12,SW,225,3.0,8.0,65,0.00,,---,0.00,VWS V14.00,2013-04-10 14:25:00,
2013-04-10 10:30:00,72.7,59.8,30.12,SW,229,3.0,11.0,64,0.00,,---,0.00,VWS V14.00,2013-04-10 14:30:00,
2013-04-10 10:35:00,73.0,60.5,30.12,SSW,205,3.0,11.0,65,0.00,,---,0.00,VWS V14.00,2013-04-10 14:35:00,
2013-04-10 10:40:00,73.4,60.5,30.12,WSW,246,4.0,11.0,64,0.00,,---,0.00,VWS V14.00,2013-04-10 14:40:00,
2013-04-10 10:45:00,73.8,60.4,30.11,WSW,237,2.0,11.0,63,0.00,,---,0.00,VWS V14.00,2013-04-10 14:45:00,
2013-04-10 10:50:00,74.2,59.9,30.12,SSW,207,5.0,11.0,61,0.00,,---,0.00,VWS V14.00,2013-04-10 14:50:00,
2013-04-10 10:55:00,74.6,60.7,30.12,SSW,193,1.0,11.0,62,0.00,,---,0.00,VWS V14.00,2013-04-10 14:55:00,
2013-04-10 11:00:00,75.2,60.8,30.11,WSW,251,3.0,6.0,61,0.00,,---,0.00,VWS V14.00,2013-04-10 15:00:00,
2013-04-10 11:05:00,75.7,60.4,30.12,SW,230,5.0,7.0,59,0.00,,---,0.00,VWS V14.00,2013-04-10 15:05:00,
2013-04-10 11:10:00,75.9,60.6,30.12,WSW,238,4.0,7.0,59,0.00,,---,0.00,VWS V14.00,2013-04-10 15:10:00,
2013-04-10 11:15:00,76.0,60.2,30.11,SSW,211,2.0,7.0,58,0.00,,---,0.00,VWS V14.00,2013-04-10 15:15:00,
2013-04-10 11:20:00,76.1,60.8,30.12,SSE,153,7.0,9.0,59,0.00,,---,0.00,VWS V14.00,2013-04-10 15:20:00,
2013-04-10 11:25:00,76.2,60.8,30.12,SW,234,3.0,9.0,59,0.00,,---,0.00,VWS V14.00,2013-04-10 15:25:00,
2013-04-10 11:30:00,76.6,60.7,30.12,WSW,252,0.0,6.0,58,0.00,,---,0.00,VWS V14.00,2013-04-10 15:30:00,
2013-04-10 11:35:00,77.1,60.2,30.11,SSW,205,0.0,6.0,56,0.00,,---,0.00,VWS V14.00,2013-04-10 15:35:00,
2013-04-10 11:40:00,77.7,60.3,30.11,WSW,240,0.0,7.0,55,0.00,,---,0.00,VWS V14.00,2013-04-10 15:40:00,
2013-04-10 11:45:00,78.0,61.0,30.11,WSW,256,2.0,10.0,56,0.00,,---,0.00,VWS V14.00,2013-04-10 15:45:00,
2013-04-10 11:50:00,78.3,60.3,30.11,WSW,252,1.0,10.0,54,0.00,,---,0.00,VWS V14.00,2013-04-10 15:50:00,
2013-04-10 11:55:00,78.5,60.5,30.11,South,177,5.0,10.0,54,0.00,,---,0.00,VWS V14.00,2013-04-10 15:55:00,
2013-04-10 12:00:00,78.5,60.5,30.11,SSW,192,2.0,5.0,54,0.00,,---,0.00,VWS V14.00,2013-04-10 16:00:00,
2013-04-10 12:05:00,78.7,60.2,30.11,SE,135,6.0,8.0,53,0.00,,---,0.00,VWS V14.00,2013-04-10 16:05:00,
2013-04-10 12:10:00,78.7,60.7,30.11,West,267,1.0,8.0,54,0.00,,---,0.00,VWS V14.00,2013-04-10 16:10:00,
2013-04-10 12:15:00,79.0,60.4,30.11,South,185,1.0,8.0,53,0.00,,---,0.00,VWS V14.00,2013-04-10 16:15:00,
2013-04-10 12:20:00,79.2,60.6,30.11,SW,221,3.0,8.0,53,0.00,,---,0.00,VWS V14.00,2013-04-10 16:20:00,
2013-04-10 12:25:00,79.3,60.7,30.10,South,175,4.0,8.0,53,0.00,,---,0.00,VWS V14.00,2013-04-10 16:25:00,
2013-04-10 12:30:00,79.5,60.3,30.10,SW,224,2.0,5.0,52,0.00,,---,0.00,VWS V14.00,2013-04-10 16:30:00,
2013-04-10 12:35:00,80.0,60.8,30.10,SW,223,4.0,7.0,52,0.00,,---,0.00,VWS V14.00,2013-04-10 16:35:00,
2013-04-10 12:40:00,80.3,60.5,30.09,NNW,332,1.0,7.0,51,0.00,,---,0.00,VWS V14.00,2013-04-10 16:40:00,
2013-04-10 12:45:00,80.6,62.4,30.09,SW,232,1.0,7.0,54,0.00,,---,0.00,VWS V14.00,2013-04-10 16:45:00,
2013-04-10 12:50:00,80.9,61.1,30.09,SW,227,5.0,9.0,51,0.00,,---,0.00,VWS V14.00,2013-04-10 16:50:00,
2013-04-10 12:55:00,80.8,61.5,30.08,SSE,159,4.0,9.0,52,0.00,,---,0.00,VWS V14.00,2013-04-10 16:55:00,
2013-04-10 13:00:00,80.9,61.1,30.08,SW,235,3.0,6.0,51,0.00,,---,0.00,VWS V14.00,2013-04-10 17:00:00,
2013-04-10 13:05:00,81.1,61.3,30.07,SSW,206,5.0,6.0,51,0.00,,---,0.00,VWS V14.00,2013-04-10 17:05:00,
2013-04-10 13:10:00,81.2,61.4,30.07,South,178,2.0,9.0,51,0.00,,---,0.00,VWS V14.00,2013-04-10 17:10:00,
2013-04-10 13:15:00,81.1,60.7,30.06,South,185,3.0,9.0,50,0.00,,---,0.00,VWS V14.00,2013-04-10 17:15:00,
2013-04-10 13:20:00,81.1,60.7,30.06,SSW,213,5.0,9.0,50,0.00,,---,0.00,VWS V14.00,2013-04-10 17:20:00,
2013-04-10 13:25:00,81.4,61.0,30.06,South,178,9.0,9.0,50,0.00,,---,0.00,VWS V14.00,2013-04-10 17:25:00,
2013-04-10 13:30:00,81.7,61.3,30.06,South,178,4.0,11.0,50,0.00,,---,0.00,VWS V14.00,2013-04-10 17:30:00,
2013-04-10 13:35:00,81.9,60.9,30.06,SE,146,2.0,11.0,49,0.00,,---,0.00,VWS V14.00,2013-04-10 17:35:00,
2013-04-10 13:40:00,81.5,61.1,30.06,WSW,256,4.0,11.0,50,0.00,,---,0.00,VWS V14.00,2013-04-10 17:40:00,
2013-04-10 13:45:00,81.7,60.7,30.06,SSE,158,1.0,11.0,49,0.00,,---,0.00,VWS V14.00,2013-04-10 17:45:00,
2013-04-10 13:50:00,81.9,60.9,30.06,SE,143,2.0,11.0,49,0.00,,---,0.00,VWS V14.00,2013-04-10 17:50:00,
2013-04-10 13:55:00,81.7,61.3,30.06,SSW,204,6.0,11.0,50,0.00,,---,0.00,VWS V14.00,2013-04-10 17:55:00,
2013-04-10 14:00:00,82.0,61.0,30.05,WSW,258,0.0,5.0,49,0.00,,---,0.00,VWS V14.00,2013-04-10 18:00:00,
2013-04-10 14:05:00,82.5,61.4,30.06,SW,226,2.0,11.0,49,0.00,,---,0.00,VWS V14.00,2013-04-10 18:05:00,
2013-04-10 14:10:00,82.6,60.9,30.06,WSW,255,3.0,11.0,48,0.00,,---,0.00,VWS V14.00,2013-04-10 18:10:00,
2013-04-10 14:15:00,82.8,61.1,30.06,WSW,238,0.0,11.0,48,0.00,,---,0.00,VWS V14.00,2013-04-10 18:15:00,
2013-04-10 14:20:00,82.9,60.6,30.05,WSW,239,2.0,11.0,47,0.00,,---,0.00,VWS V14.00,2013-04-10 18:20:00,
2013-04-10 14:25:00,82.9,61.2,30.05,SSE,157,5.0,11.0,48,0.00,,---,0.00,VWS V14.00,2013-04-10 18:25:00,
2013-04-10 14:30:00,83.0,61.3,30.05,SW,215,1.0,6.0,48,0.00,,---,0.00,VWS V14.00,2013-04-10 18:30:00,
2013-04-10 14:35:00,83.1,60.8,30.05,SSW,196,0.0,6.0,47,0.00,,---,0.00,VWS V14.00,2013-04-10 18:35:00,
2013-04-10 14:40:00,83.3,61.0,30.05,SSE,157,6.0,7.0,47,0.00,,---,0.00,VWS V14.00,2013-04-10 18:40:00,
2013-04-10 14:45:00,83.2,62.1,30.04,South,183,2.0,8.0,49,0.00,,---,0.00,VWS V14.00,2013-04-10 18:45:00,
2013-04-10 14:50:00,83.3,60.4,30.04,SE,146,6.0,8.0,46,0.00,,---,0.00,VWS V14.00,2013-04-10 18:50:00,
2013-04-10 14:55:00,83.0,61.3,30.04,South,181,3.0,9.0,48,0.00,,---,0.00,VWS V14.00,2013-04-10 18:55:00,
2013-04-10 15:00:00,83.3,59.8,30.03,South,186,0.0,7.0,45,0.00,,---,0.00,VWS V14.00,2013-04-10 19:00:00,
2013-04-10 15:05:00,83.6,61.8,30.03,SW,224,4.0,7.0,48,0.00,,---,0.00,VWS V14.00,2013-04-10 19:05:00,
2013-04-10 15:10:00,83.9,60.3,30.03,South,182,2.0,7.0,45,0.00,,---,0.00,VWS V14.00,2013-04-10 19:10:00,
2013-04-10 15:15:00,84.0,59.8,30.02,ESE,119,8.0,9.0,44,0.00,,---,0.00,VWS V14.00,2013-04-10 19:15:00,
2013-04-10 15:20:00,83.6,60.7,30.02,SSE,167,5.0,9.0,46,0.00,,---,0.00,VWS V14.00,2013-04-10 19:20:00,
2013-04-10 15:25:00,83.4,59.2,30.02,SSW,212,3.0,9.0,44,0.00,,---,0.00,VWS V14.00,2013-04-10 19:25:00,
2013-04-10 15:30:00,83.5,59.9,30.02,South,189,4.0,7.0,45,0.00,,---,0.00,VWS V14.00,2013-04-10 19:30:00,
2013-04-10 15:35:00,83.6,60.0,30.02,WSW,252,0.0,7.0,45,0.00,,---,0.00,VWS V14.00,2013-04-10 19:35:00,
2013-04-10 15:40:00,83.8,60.8,30.01,SSW,207,5.0,7.0,46,0.00,,---,0.00,VWS V14.00,2013-04-10 19:40:00,
2013-04-10 15:45:00,84.0,59.8,30.01,South,169,4.0,8.0,44,0.00,,---,0.00,VWS V14.00,2013-04-10 19:45:00,
2013-04-10 15:50:00,84.0,59.1,30.01,SW,232,5.0,8.0,43,0.00,,---,0.00,VWS V14.00,2013-04-10 19:50:00,
2013-04-10 15:55:00,84.4,58.8,30.01,SSW,208,2.0,8.0,42,0.00,,---,0.00,VWS V14.00,2013-04-10 19:55:00,
2013-04-10 16:00:00,84.6,59.7,30.01,South,174,1.0,7.0,43,0.00,,---,0.00,VWS V14.00,2013-04-10 20:00:00,
2013-04-10 16:05:00,84.7,59.1,30.01,SSW,192,1.0,7.0,42,0.00,,---,0.00,VWS V14.00,2013-04-10 20:05:00,
2013-04-10 16:10:00,84.5,58.9,30.01,SSE,165,5.0,7.0,42,0.00,,---,0.00,VWS V14.00,2013-04-10 20:10:00,
2013-04-10 16:15:00,84.1,59.2,30.00,SSE,160,2.0,10.0,43,0.00,,---,0.00,VWS V14.00,2013-04-10 20:15:00,
2013-04-10 16:20:00,84.1,60.5,30.00,SSW,204,4.0,10.0,45,0.00,,---,0.00,VWS V14.00,2013-04-10 20:20:00,
2013-04-10 16:25:00,84.3,60.0,30.00,WSW,244,1.0,10.0,44,0.00,,---,0.00,VWS V14.00,2013-04-10 20:25:00,
2013-04-10 16:30:00,84.5,60.2,30.00,SW,232,1.0,3.0,44,0.00,,---,0.00,VWS V14.00,2013-04-10 20:30:00,
2013-04-10 16:35:00,84.8,59.2,30.00,NW,320,1.0,14.0,42,0.00,,---,0.00,VWS V14.00,2013-04-10 20:35:00,
2013-04-10 16:40:00,84.9,59.3,29.99,SSW,197,3.0,14.0,42,0.00,,---,0.00,VWS V14.00,2013-04-10 20:40:00,
2013-04-10 16:45:00,84.8,59.8,29.99,WSW,250,1.0,14.0,43,0.00,,---,0.00,VWS V14.00,2013-04-10 20:45:00,
2013-04-10 16:50:00,84.7,59.8,29.99,SSW,213,2.0,14.0,43,0.00,,---,0.00,VWS V14.00,2013-04-10 20:50:00,
2013-04-10 16:55:00,84.6,59.0,29.99,SSE,153,0.0,14.0,42,0.00,,---,0.00,VWS V14.00,2013-04-10 20:55:00,
2013-04-10 17:00:00,84.5,59.6,29.98,SSE,152,5.0,8.0,43,0.00,,---,0.00,VWS V14.00,2013-04-10 21:00:00,
2013-04-10 17:05:00,84.3,60.0,29.98,South,187,1.0,8.0,44,0.00,,---,0.00,VWS V14.00,2013-04-10 21:05:00,
2013-04-10 17:10:00,84.5,58.9,29.98,WSW,243,1.0,8.0,42,0.00,,---,0.00,VWS V14.00,2013-04-10 21:10:00,
2013-04-10 17:15:00,84.7,59.1,29.98,SSW,197,3.0,8.0,42,0.00,,---,0.00,VWS V14.00,2013-04-10 21:15:00,
2013-04-10 17:20:00,84.6,59.0,29.98,SW,231,4.0,8.0,42,0.00,,---,0.00,VWS V14.00,2013-04-10 21:20:00,
2013-04-10 17:25:00,84.5,58.9,29.98,WSW,239,6.0,8.0,42,0.00,,---,0.00,VWS V14.00,2013-04-10 21:25:00,
2013-04-10 17:30:00,84.4,59.5,29.98,SSW,210,0.0,5.0,43,0.00,,---,0.00,VWS V14.00,2013-04-10 21:30:00,
2013-04-10 17:35:00,84.4,59.5,29.98,South,173,7.0,9.0,43,0.00,,---,0.00,VWS V14.00,2013-04-10 21:35:00,
2013-04-10 17:40:00,84.3,59.4,29.97,WSW,242,1.0,9.0,43,0.00,,---,0.00,VWS V14.00,2013-04-10 21:40:00,
2013-04-10 17:45:00,84.3,59.4,29.97,SSE,161,6.0,9.0,43,0.00,,---,0.00,VWS V14.00,2013-04-10 21:45:00,
2013-04-10 17:50:00,84.1,59.9,29.97,South,184,0.0,9.0,44,0.00,,---,0.00,VWS V14.00,2013-04-10 21:50:00,
2013-04-10 17:55:00,83.9,60.3,29.97,SSW,202,2.0,9.0,45,0.00,,---,0.00,VWS V14.00,2013-04-10 21:55:00,
2013-04-10 18:00:00,83.9,59.7,29.97,SSW,194,2.0,5.0,44,0.00,,---,0.00,VWS V14.00,2013-04-10 22:00:00,
2013-04-10 18:05:00,83.8,59.6,29.97,South,185,0.0,7.0,44,0.00,,---,0.00,VWS V14.00,2013-04-10 22:05:00,
2013-04-10 18:10:00,83.8,59.6,29.97,SW,234,1.0,7.0,44,0.00,,---,0.00,VWS V14.00,2013-04-10 22:10:00,
2013-04-10 18:15:00,83.8,59.6,29.97,SSW,213,2.0,7.0,44,0.00,,---,0.00,VWS V14.00,2013-04-10 22:15:00,
2013-04-10 18:20:00,83.7,58.8,29.97,WSW,241,3.0,7.0,43,0.00,,---,0.00,VWS V14.00,2013-04-10 22:20:00,
2013-04-10 18:25:00,83.5,59.3,29.97,SSW,200,2.0,7.0,44,0.00,,---,0.00,VWS V14.00,2013-04-10 22:25:00,
2013-04-10 18:30:00,83.3,57.8,29.97,SE,146,8.0,8.0,42,0.00,,---,0.00,VWS V14.00,2013-04-10 22:30:00,
2013-04-10 18:35:00,82.9,58.8,29.97,SSW,192,1.0,9.0,44,0.00,,---,0.00,VWS V14.00,2013-04-10 22:35:00,
2013-04-10 18:40:00,82.6,58.5,29.97,SSW,212,0.0,9.0,44,0.00,,---,0.00,VWS V14.00,2013-04-10 22:40:00,
2013-04-10 18:45:00,82.4,57.7,29.97,SSW,192,0.0,9.0,43,0.00,,---,0.00,VWS V14.00,2013-04-10 22:45:00,
2013-04-10 18:50:00,82.2,58.1,29.97,West,279,1.0,9.0,44,0.00,,---,0.00,VWS V14.00,2013-04-10 22:50:00,
2013-04-10 18:55:00,82.0,58.0,29.98,SW,222,3.0,9.0,44,0.00,,---,0.00,VWS V14.00,2013-04-10 22:55:00,
2013-04-10 19:00:00,81.8,57.8,29.98,SW,232,3.0,4.0,44,0.00,,---,0.00,VWS V14.00,2013-04-10 23:00:00,
2013-04-10 19:05:00,81.6,58.2,29.98,WSW,245,1.0,4.0,45,0.00,,---,0.00,VWS V14.00,2013-04-10 23:05:00,
2013-04-10 19:10:00,81.4,58.0,29.98,SW,231,1.0,4.0,45,0.00,,---,0.00,VWS V14.00,2013-04-10 23:10:00,
2013-04-10 19:15:00,81.2,57.9,29.98,SW,229,1.0,5.0,45,0.00,,---,0.00,VWS V14.00,2013-04-10 23:15:00,
2013-04-10 19:20:00,80.9,57.6,29.98,WSW,238,0.0,6.0,45,0.00,,---,0.00,VWS V14.00,2013-04-10 23:20:00,
2013-04-10 19:25:00,80.6,57.3,29.98,WSW,240,1.0,6.0,45,0.00,,---,0.00,VWS V14.00,2013-04-10 23:25:00,
2013-04-10 19:30:00,80.3,57.7,29.98,WSW,243,3.0,4.0,46,0.00,,---,0.00,VWS V14.00,2013-04-10 23:30:00,
2013-04-10 19:35:00,80.0,57.4,29.98,West,265,1.0,4.0,46,0.00,,---,0.00,VWS V14.00,2013-04-10 23:35:00,
2013-04-10 19:40:00,79.8,57.2,29.98,WSW,250,0.0,4.0,46,0.00,,---,0.00,VWS V14.00,2013-04-10 23:40:00,
2013-04-10 19:45:00,79.5,57.5,29.98,WSW,250,0.0,4.0,47,0.00,,---,0.00,VWS V14.00,2013-04-10 23:45:00,
2013-04-10 19:50:00,79.1,57.2,29.98,WSW,250,0.0,4.0,47,0.00,,---,0.00,VWS V14.00,2013-04-10 23:50:00,
2013-04-10 19:55:00,78.7,57.4,29.97,WSW,250,0.0,4.0,48,0.00,,---,0.00,VWS V14.00,2013-04-10 23:55:00,
2013-04-10 20:00:00,78.3,57.0,29.97,WSW,250,0.0,2.0,48,0.00,,---,0.00,VWS V14.00,2013-04-11 00:00:00,
2013-04-10 20:05:00,77.9,57.8,29.97,WSW,250,0.0,2.0,50,0.00,,---,0.00,VWS V14.00,2013-04-11 00:05:00,
2013-04-10 20:10:00,77.4,57.9,29.97,WSW,250,0.0,2.0,51,0.00,,---,0.00,VWS V14.00,2013-04-11 00:10:00,
2013-04-10 20:15:00,76.7,57.8,29.97,WSW,250,0.0,2.0,52,0.00,,---,0.00,VWS V14.00,2013-04-11 00:15:00,
2013-04-10 20:20:00,76.1,57.8,29.97,WSW,250,0.0,2.0,53,0.00,,---,0.00,VWS V14.00,2013-04-11 00:20:00,
2013-04-10 20:25:00,75.5,57.7,29.97,WSW,250,0.0,2.0,54,0.00,,---,0.00,VWS V14.00,2013-04-11 00:25:00,
2013-04-10 20:30:00,74.8,57.6,29.97,WSW,250,0.0,0.0,55,0.00,,---,0.00,VWS V14.00,2013-04-11 00:30:00,
2013-04-10 20:35:00,74.1,57.4,29.97,WSW,250,0.0,0.0,56,0.00,,---,0.00,VWS V14.00,2013-04-11 00:35:00,
2013-04-10 20:40:00,73.5,57.8,29.97,WSW,250,0.0,0.0,58,0.00,,---,0.00,VWS V14.00,2013-04-11 00:40:00,
2013-04-10 20:45:00,72.9,57.8,29.96,WSW,250,0.0,0.0,59,0.00,,---,0.00,VWS V14.00,2013-04-11 00:45:00,
2013-04-10 20:50:00,72.3,57.7,29.96,WSW,250,0.0,0.0,60,0.00,,---,0.00,VWS V14.00,2013-04-11 00:50:00,
2013-04-10 20:55:00,71.8,57.6,29.96,WSW,250,0.0,0.0,61,0.00,,---,0.00,VWS V14.00,2013-04-11 00:55:00,
2013-04-10 21:00:00,71.3,57.6,29.96,WSW,250,0.0,0.0,62,0.00,,---,0.00,VWS V14.00,2013-04-11 01:00:00,
2013-04-10 21:05:00,71.0,57.3,29.96,WSW,250,0.0,0.0,62,0.00,,---,0.00,VWS V14.00,2013-04-11 01:05:00,
2013-04-10 21:10:00,70.6,57.8,29.96,WSW,250,0.0,0.0,64,0.00,,---,0.00,VWS V14.00,2013-04-11 01:10:00,
2013-04-10 21:15:00,70.3,57.6,29.95,WSW,250,0.0,0.0,64,0.00,,---,0.00,VWS V14.00,2013-04-11 01:15:00,
2013-04-10 21:20:00,70.0,57.7,29.95,WSW,250,0.0,0.0,65,0.00,,---,0.00,VWS V14.00,2013-04-11 01:20:00,
2013-04-10 21:25:00,69.7,57.8,29.95,WSW,250,0.0,0.0,66,0.00,,---,0.00,VWS V14.00,2013-04-11 01:25:00,
2013-04-10 21:30:00,69.5,57.7,29.95,WSW,250,0.0,0.0,66,0.00,,---,0.00,VWS V14.00,2013-04-11 01:30:00,
2013-04-10 21:35:00,69.3,57.5,29.96,WSW,250,0.0,0.0,66,0.00,,---,0.00,VWS V14.00,2013-04-11 01:35:00,
2013-04-10 21:40:00,69.0,57.6,29.95,WSW,250,0.0,0.0,67,0.00,,---,0.00,VWS V14.00,2013-04-11 01:40:00,
2013-04-10 21:45:00,68.8,57.4,29.96,WSW,250,0.0,0.0,67,0.00,,---,0.00,VWS V14.00,2013-04-11 01:45:00,
2013-04-10 21:50:00,68.6,57.2,29.96,WSW,250,0.0,0.0,67,0.00,,---,0.00,VWS V14.00,2013-04-11 01:50:00,
2013-04-10 21:55:00,68.4,57.0,29.96,WSW,250,0.0,0.0,67,0.00,,---,0.00,VWS V14.00,2013-04-11 01:55:00,
2013-04-10 22:00:00,68.3,56.5,29.96,WSW,250,0.0,1.0,66,0.00,,---,0.00,VWS V14.00,2013-04-11 02:00:00,
2013-04-10 22:05:00,68.3,56.5,29.96,WSW,250,0.0,1.0,66,0.00,,---,0.00,VWS V14.00,2013-04-11 02:05:00,
2013-04-10 22:10:00,68.6,56.8,29.96,SSW,198,4.0,5.0,66,0.00,,---,0.00,VWS V14.00,2013-04-11 02:10:00,
2013-04-10 22:15:00,69.3,57.0,29.96,SSW,194,0.0,5.0,65,0.00,,---,0.00,VWS V14.00,2013-04-11 02:15:00,
2013-04-10 22:20:00,69.8,57.1,29.96,SSW,203,0.0,5.0,64,0.00,,---,0.00,VWS V14.00,2013-04-11 02:20:00,
2013-04-10 22:25:00,70.1,57.4,29.96,SSW,210,1.0,5.0,64,0.00,,---,0.00,VWS V14.00,2013-04-11 02:25:00,
2013-04-10 22:32:00,70.3,57.6,29.96,SSW,208,1.0,1.0,64,0.00,,---,0.00,VWS V14.00,2013-04-11 02:32:00,
2013-04-10 22:37:00,70.3,58.4,29.95,SSW,202,0.0,5.0,66,0.00,,---,0.00,VWS V14.00,2013-04-11 02:37:00,
2013-04-10 22:42:00,70.3,58.4,29.95,SW,216,0.0,5.0,66,0.00,,---,0.00,VWS V14.00,2013-04-11 02:42:00,
2013-04-10 22:47:00,70.3,58.8,29.95,SW,224,0.0,6.0,67,0.00,,---,0.00,VWS V14.00,2013-04-11 02:47:00,
2013-04-10 22:52:00,70.4,59.3,29.95,SW,236,1.0,8.0,68,0.00,,---,0.00,VWS V14.00,2013-04-11 02:52:00,
2013-04-10 22:57:00,70.4,59.3,29.96,SW,215,3.0,7.0,68,0.00,,---,0.00,VWS V14.00,2013-04-11 02:57:00,
2013-04-10 23:02:00,70.3,59.2,29.96,SW,223,4.0,7.0,68,0.00,,---,0.00,VWS V14.00,2013-04-11 03:02:00,
2013-04-10 23:07:00,70.1,59.5,29.95,South,172,2.0,7.0,69,0.00,,---,0.00,VWS V14.00,2013-04-11 03:07:00,
2013-04-10 23:12:00,69.9,59.3,29.95,SSW,213,2.0,7.0,69,0.00,,---,0.00,VWS V14.00,2013-04-11 03:12:00,
2013-04-10 23:17:00,69.7,59.5,29.95,South,188,1.0,8.0,70,0.00,,---,0.00,VWS V14.00,2013-04-11 03:17:00,
2013-04-10 23:23:00,69.5,59.7,29.95,SSW,211,3.0,8.0,71,0.00,,---,0.00,VWS V14.00,2013-04-11 03:23:00,
2013-04-10 23:28:00,69.4,59.6,29.95,SW,214,1.0,2.0,71,0.00,,---,0.00,VWS V14.00,2013-04-11 03:28:00,
2013-04-10 23:33:00,69.2,59.8,29.94,SSW,193,2.0,6.0,72,0.00,,---,0.00,VWS V14.00,2013-04-11 03:33:00,
2013-04-10 23:38:00,69.0,59.6,29.94,SSW,194,3.0,6.0,72,0.00,,---,0.00,VWS V14.00,2013-04-11 03:38:00,
2013-04-10 23:43:00,68.8,59.8,29.94,SSW,207,0.0,10.0,73,0.00,,---,0.00,VWS V14.00,2013-04-11 03:43:00,
2013-04-10 23:48:00,68.6,60.0,29.95,SSW,197,0.0,10.0,74,0.00,,---,0.00,VWS V14.00,2013-04-11 03:48:00,
2013-04-10 23:52:00,68.5,59.9,29.95,SSW,201,3.0,10.0,74,0.00,,---,0.00,VWS V14.00,2013-04-11 03:52:00,
2013-04-10 23:58:00,68.4,60.2,29.95,SSW,213,1.0,4.0,75,0.00,,---,0.00,VWS V14.00,2013-04-11 03:58:00,